GW2741 Weather Reports


time (UTC)temp
F
wind
direction
speed
knots
gust
knots
rain 1hr
in
rain 24hr
in
rain mn
in
humidity
%
barometer
mb
20260507230643 48 116 0.9 1.7 0.00 0.00 0.00 75 1014.2
20260507225745 48 207 0.9 1.7 0.00 0.00 0.00 75 1014.0
20260507223943 48 175 0.9 1.7 0.00 0.00 0.00 75 1013.8
20260507223043 48 154 0.9 1.7 0.00 0.00 0.00 74 1013.8
20260507222143 48 149 0.9 1.7 0.00 0.00 0.00 74 1013.9
20260507221243 49 172 0.9 2.6 0.00 0.00 0.00 74 1013.8
20260507220343 49 173 0.9 3.5 0.00 0.00 0.00 74 1013.8
20260507215443 49 188 0.0 1.7 0.00 0.00 0.00 74 1013.9
20260507214543 49 192 0.0 1.7 0.00 0.00 0.00 74 1013.8
20260507213643 49 176 0.0 1.7 0.00 0.00 0.00 74 1013.7
20260507212743 49 246 0.0 1.7 0.00 0.00 0.00 73 1013.7
20260507211843 49 248 0.9 1.7 0.00 0.00 0.00 73 1014.0
20260507210943 49 265 1.7 3.5 0.00 0.00 0.00 73 1013.9
20260507205143 50 312 2.6 4.3 0.00 0.00 0.00 72 1013.4
20260507204243 50 286 1.7 3.5 0.00 0.00 0.00 72 1013.3
20260507203343 51 306 2.6 7.0 0.00 0.00 0.00 72 1013.5
20260507202443 51 296 2.6 6.1 0.00 0.00 0.00 72 1013.4
20260507201543 51 293 2.6 7.0 0.00 0.00 0.00 71 1013.4
20260507200643 51 189 0.9 2.6 0.00 0.00 0.00 71 1013.3
20260507195743 51 249 0.9 3.5 0.00 0.00 0.00 71 1013.2
20260507194843 50 293 0.9 1.7 0.00 0.00 0.00 70 1013.2
20260507193943 50 316 0.9 2.6 0.00 0.00 0.00 70 1013.1
20260507193043 50 7 0.9 2.6 0.00 0.00 0.00 68 1012.9
20260507192143 51 114 0.9 3.5 0.00 0.00 0.00 67 1012.8
20260507191243 51 114 0.9 3.5 0.00 0.00 0.00 67 1012.5
20260507190343 51 8 0.9 2.6 0.00 0.00 0.00 65 1012.7
20260507183643 52 311 2.6 4.3 0.00 0.00 0.00 61 1012.5
20260507182743 52 337 3.5 6.1 0.00 0.00 0.00 60 1012.3
20260507181844 53 332 3.5 7.0 0.00 0.00 0.00 56 1012.2
20260507180944 54 287 3.5 7.0 0.00 0.00 0.00 51 1012.1
20260507180044 55 295 3.5 7.8 0.00 0.00 0.00 51 1012.1
20260507175144 55 257 2.6 5.2 0.00 0.00 0.00 52 1012.1
20260507174243 56 269 2.6 4.3 0.00 0.00 0.00 53 1012.2
20260507170643 54 306 6.1 12.2 0.00 0.00 0.00 52 1011.8
20260507165744 56 281 6.1 11.3 0.00 0.00 0.00 52 1012.0
20260507164844 56 267 5.2 9.6 0.00 0.00 0.00 51 1012.0
20260507163943 56 286 3.5 7.0 0.00 0.00 0.00 50 1012.0
20260507161244 56 257 1.7 5.2 0.00 0.00 0.00 47 1011.9
20260507155445 56 244 2.6 7.8 0.00 0.00 0.00 44 1011.9
20260507154543 56 327 2.6 6.1 0.00 0.00 0.00 42 1012.0
20260507153644 58 185 5.2 11.3 0.00 0.00 0.00 41 1011.5
20260507152743 57 159 7.8 12.2 0.00 0.00 0.00 41 1011.9
20260507151844 58 166 7.8 11.3 0.00 0.00 0.00 40 1011.9
20260507150944 58 169 8.7 13.9 0.00 0.00 0.00 36 1011.7
20260507150043 59 175 7.8 14.8 0.00 0.00 0.00 32 1011.6
20260507145144 60 174 5.2 10.4 0.00 0.00 0.00 30 1011.7
20260507144244 61 181 4.3 8.7 0.00 0.00 0.00 30 1011.8
20260507143344 62 130 5.2 8.7 0.00 0.00 0.00 31 1012.0
20260507142443 61 82 4.3 10.4 0.00 0.00 0.00 32 1012.0
20260507141544 59 124 3.5 7.0 0.00 0.00 0.00 33 1012.1
20260507134844 58 151 7.0 10.4 0.00 0.00 0.00 35 1012.1
20260507133944 58 185 6.1 11.3 0.00 0.00 0.00 37 1012.2
20260507133044 58 173 7.8 13.0 0.00 0.00 0.00 40 1012.3
20260507132144 57 166 7.8 12.2 0.00 0.00 0.00 40 1012.4
20260507130344 57 153 8.7 14.8 0.00 0.00 0.00 40 1012.7
20260507125444 57 174 9.6 13.9 0.00 0.00 0.00 40 1012.5
20260507124544 56 169 8.7 13.0 0.00 0.00 0.00 40 1012.3
20260507123644 58 176 7.8 14.8 0.00 0.00 0.00 40 1012.8
20260507122744 57 166 8.7 14.8 0.00 0.00 0.00 40 1012.6
20260507121844 58 150 7.8 14.8 0.00 0.00 0.00 41 1012.5
20260507120944 57 166 8.7 13.9 0.00 0.00 0.00 42 1012.5
20260507120044 56 177 8.7 12.2 0.00 0.00 0.00 42 1012.8
20260507115144 55 168 9.6 14.8 0.00 0.00 0.00 41 1012.7
20260507113344 55 166 7.0 13.0 0.00 0.00 0.00 40 1012.8
20260507112444 56 164 8.7 15.6 0.00 0.00 0.00 40 1012.7
20260507111544 56 154 7.8 13.9 0.00 0.00 0.00 38 1012.6
20260507105744 59 155 7.8 14.8 0.00 0.00 0.00 35 1012.6
20260507104844 59 152 9.6 14.8 0.00 0.00 0.00 35 1012.7
20260507103944 59 163 8.7 14.8 0.00 0.00 0.00 35 1012.5
20260507103044 59 146 7.8 15.6 0.00 0.00 0.00 37 1012.8
20260507102144 58 157 8.7 13.0 0.00 0.00 0.00 40 1012.5
20260507101244 56 169 10.4 15.6 0.00 0.00 0.00 39 1012.7
20260507100344 57 151 8.7 15.6 0.00 0.00 0.00 37 1012.7
20260507095444 57 150 8.7 13.9 0.00 0.00 0.00 38 1012.7
20260507093644 56 158 8.7 14.8 0.00 0.00 0.00 40 1012.5
20260507092744 56 161 8.7 13.0 0.00 0.00 0.00 40 1012.8
20260507091845 55 157 7.8 13.0 0.00 0.00 0.00 40 1012.7
20260507090944 55 151 7.8 14.8 0.00 0.00 0.00 41 1012.9
20260507090044 54 162 7.8 13.0 0.00 0.00 0.00 44 1012.9
20260507085144 54 167 7.8 13.0 0.00 0.00 0.00 45 1013.2
20260507084244 53 170 7.8 13.0 0.00 0.00 0.00 44 1013.2